����,���ϕ���(m/s),���ϕ���,�ő�u�ԕ���(m/s),�ő啗��������,�C��(��),���x(%),10���Ԉړ��ώZ�J��(mm),1���Ԉړ��ώZ�J��(mm),���J��(mm),�݌v�J��(mm),����(���ώZ)(MJ/m2),����(���ώZ)(min),���n�C��(hPa),�C�ʋC��(hPa)
2023-11-13T00:00:00+09:00,0.9,��,1.8,���쐼,7.3,95.5,0,0,0.5,0.5,3.69,0,1002.5,1016.7
2023-11-13T00:01:00+09:00,0.8,��,1.8,���쐼,7.3,95.6,0,0,0,0.5,0,0,1002.5,1016.7
2023-11-13T00:02:00+09:00,0.9,���k��,1.7,�k��,7.3,95.6,0,0,0,0.5,0,0,1002.6,1016.8
2023-11-13T00:03:00+09:00,0.8,���k��,1.7,�k��,7.4,95.7,0,0,0,0.5,0,0,1002.5,1016.7
2023-11-13T00:04:00+09:00,0.8,���k��,1.7,�k��,7.6,96,0,0,0,0.5,0,0,1002.5,1016.7
2023-11-13T00:05:00+09:00,0.7,���k��,1.7,�k��,7.6,96,0,0,0,0.5,0,0,1002.4,1016.6
2023-11-13T00:06:00+09:00,0.6,�k��,1.6,�k��,7.7,96,0,0,0,0.5,0,0,1002.5,1016.7
2023-11-13T00:07:00+09:00,0.6,�k��,2,�k,7.6,96,0,0,0,0.5,0,0,1002.5,1016.7
2023-11-13T00:08:00+09:00,0.7,�k��,2,�k,7.7,96.2,0,0,0,0.5,0,0,1002.5,1016.7
2023-11-13T00:09:00+09:00,0.7,�k�k��,2,�k,7.5,96,0,0,0,0.5,0,0,1002.5,1016.7
2023-11-13T00:10:00+09:00,0.8,�k�k��,2,�k,7.5,95.9,0,0,0,0.5,0,0,1002.4,1016.6
2023-11-13T00:11:00+09:00,0.8,�k,2,�k,7.5,95.8,0,0,0,0.5,0,0,1002.4,1016.6
2023-11-13T00:12:00+09:00,0.9,�k,2.3,�k,7.5,96,0,0,0,0.5,0,0,1002.4,1016.6
2023-11-13T00:13:00+09:00,0.8,�k,2.3,�k,7.6,96,0,0,0,0.5,0,0,1002.4,1016.6
2023-11-13T00:14:00+09:00,0.8,�k,2.3,�k,7.6,96.2,0,0,0,0.5,0,0,1002.5,1016.7
2023-11-13T00:15:00+09:00,0.9,�k,2.3,�k,7.6,96,0,0,0,0.5,0,0,1002.4,1016.6
2023-11-13T00:16:00+09:00,0.8,�k,2.3,�k,7.5,96.1,0,0,0,0.5,0,0,1002.4,1016.6
2023-11-13T00:17:00+09:00,0.7,�k,2.3,�k,7.5,96.1,0,0,0,0.5,0,0,1002.4,1016.6
2023-11-13T00:18:00+09:00,0.7,�k,2.3,�k,7.7,96.1,0,0,0,0.5,0,0,1002.4,1016.6
2023-11-13T00:19:00+09:00,0.8,�k,2.3,�k,7.5,96.2,0,0,0,0.5,0,0,1002.5,1016.7
2023-11-13T00:20:00+09:00,0.8,�k,2.3,�k,7.6,96.1,0,0,0,0.5,0,0,1002.5,1016.7
2023-11-13T00:21:00+09:00,0.9,�k,2.3,�k,7.6,96.1,0,0,0,0.5,0,0,1002.5,1016.7
2023-11-13T00:22:00+09:00,0.8,�k,1.8,�k,7.6,96.2,0,0,0,0.5,0,0,1002.5,1016.7
2023-11-13T00:23:00+09:00,0.8,�k,1.8,�k,7.6,96.2,0,0,0,0.5,0,0,1002.5,1016.7
2023-11-13T00:24:00+09:00,0.8,�k,1.8,�k,7.6,96.2,0,0,0,0.5,0,0,1002.5,1016.7
2023-11-13T00:25:00+09:00,0.8,�k,1.8,�k,7.6,96.1,0,0,0,0.5,0,0,1002.5,1016.7
2023-11-13T00:26:00+09:00,0.9,�k,1.8,�k,7.7,96.2,0,0,0,0.5,0,0,1002.5,1016.7
2023-11-13T00:27:00+09:00,0.9,�k�k��,1.8,�k,7.7,96.3,0,0,0,0.5,0,0,1002.4,1016.6
2023-11-13T00:28:00+09:00,0.9,�k�k��,1.8,�k,7.6,96.2,0,0,0,0.5,0,0,1002.4,1016.6
2023-11-13T00:29:00+09:00,0.9,�k�k��,1.8,�k,7.6,96,0,0,0,0.5,0,0,1002.4,1016.6
2023-11-13T00:30:00+09:00,0.8,�k,1.8,�k,7.7,96.1,0,0,0,0.5,0,0,1002.4,1016.6
2023-11-13T00:31:00+09:00,0.7,�k,1.4,�k�k��,7.6,96,0,0,0,0.5,0,0,1002.4,1016.6
2023-11-13T00:32:00+09:00,0.7,�k,1.4,�k�k��,7.7,96,0,0,0,0.5,0,0,1002.4,1016.6
2023-11-13T00:33:00+09:00,0.8,�k,1.4,�k�k��,7.7,96.1,0,0,0,0.5,0,0,1002.3,1016.5
2023-11-13T00:34:00+09:00,0.8,�k�k��,1.4,�k�k��,7.6,96,0,0,0,0.5,0,0,1002.4,1016.6
2023-11-13T00:35:00+09:00,0.8,�k��,1.3,�k�k��,7.5,95.9,0,0,0,0.5,0,0,1002.4,1016.6
2023-11-13T00:36:00+09:00,0.7,�k��,1.3,�k�k��,7.3,95.5,0,0,0,0.5,0,0,1002.4,1016.6
2023-11-13T00:37:00+09:00,0.7,���k��,1.3,�k�k��,7.3,95.5,0,0,0,0.5,0,0,1002.4,1016.6
2023-11-13T00:38:00+09:00,0.6,��,1.2,��,7.3,95.6,0,0,0,0.5,0,0,1002.4,1016.6
2023-11-13T00:39:00+09:00,0.6,��,1.2,��,7.2,95.7,0,0,0,0.5,0,0,1002.4,1016.6
2023-11-13T00:40:00+09:00,0.6,��,1.2,��,7.4,95.9,0,0,0,0.5,0,0,1002.4,1016.6
2023-11-13T00:41:00+09:00,0.6,��,1.2,��,7.4,96,0,0,0,0.5,0,0,1002.4,1016.6
2023-11-13T00:42:00+09:00,0.5,��,1.2,��,7.4,96.2,0,0,0,0.5,0,0,1002.4,1016.6
2023-11-13T00:43:00+09:00,0.4,���k��,1.1,���쐼,7.4,96.1,0,0,0,0.5,0,0,1002.4,1016.6
2023-11-13T00:44:00+09:00,0.3,���k��,1.1,���쐼,7.3,95.9,0,0,0,0.5,0,0,1002.4,1016.6
2023-11-13T00:45:00+09:00,0.2,�É�,1,���k��,7.3,95.9,0,0,0,0.5,0,0,1002.4,1016.6
2023-11-13T00:46:00+09:00,0.2,�É�,0.8,���쐼,7.3,95.9,0,0,0,0.5,0,0,1002.3,1016.5
2023-11-13T00:47:00+09:00,0.2,�É�,0.7,���쐼,7.5,96.2,0,0,0,0.5,0,0,1002.4,1016.6
2023-11-13T00:48:00+09:00,0.1,�É�,0.6,���k��,7.5,96.4,0,0,0,0.5,0,0,1002.4,1016.6
2023-11-13T00:49:00+09:00,0.1,�É�,0.5,��,7.6,96.4,0,0,0,0.5,0,0,1002.4,1016.6
2023-11-13T00:50:00+09:00,0,�É�,0.4,�k��,7.5,96.4,0,0,0,0.5,0,0,1002.4,1016.6
2023-11-13T00:51:00+09:00,0.1,�É�,0.6,��,7.3,96.1,0,0,0,0.5,0,0,1002.4,1016.6
2023-11-13T00:52:00+09:00,0.1,�É�,1.3,��,7.4,96.1,0,0,0,0.5,0,0,1002.4,1016.6
2023-11-13T00:53:00+09:00,0.2,�É�,1.3,��,7.3,96.2,0,0,0,0.5,0,0,1002.4,1016.6
2023-11-13T00:54:00+09:00,0.2,�É�,1.3,��,7.4,96.2,0,0,0,0.5,0,0,1002.4,1016.6
2023-11-13T00:55:00+09:00,0.3,��,1.3,��,7.2,96.1,0,0,0,0.5,0,0,1002.3,1016.5
2023-11-13T00:56:00+09:00,0.3,��,1.3,��,7.4,96.2,0,0,0,0.5,0,0,1002.3,1016.5
2023-11-13T00:57:00+09:00,0.4,��,1.3,��,7.5,96.3,0,0,0,0.5,0,0,1002.3,1016.5
2023-11-13T00:58:00+09:00,0.4,��,1.3,��,7.5,96.6,0,0,0,0.5,0,0,1002.3,1016.5
2023-11-13T00:59:00+09:00,0.5,��,1.3,��,7.6,96.6,0,0,0,0.5,0,0,1002.3,1016.5
2023-11-13T01:00:00+09:00,0.5,��,1.3,��,7.6,96.6,0,0,0,0.5,0,0,1002.3,1016.5
2023-11-13T01:01:00+09:00,0.5,��,1.3,��,7.5,96.5,0,0,0,0.5,0,0,1002.3,1016.5
2023-11-13T01:02:00+09:00,0.5,��,1.1,���쐼,7.4,96.3,0,0,0,0.5,0,0,1002.3,1016.5
2023-11-13T01:03:00+09:00,0.4,���k��,1,���k��,7.4,96.2,0,0,0,0.5,0,0,1002.3,1016.5
2023-11-13T01:04:00+09:00,0.4,���k��,1,���k��,7.5,96.4,0,0,0,0.5,0,0,1002.3,1016.5
2023-11-13T01:05:00+09:00,0.3,�k��,1,���k��,7.5,96.5,0,0,0,0.5,0,0,1002.3,1016.5
2023-11-13T01:06:00+09:00,0.2,�É�,0.9,�k��,7.3,96.4,0,0,0,0.5,0,0,1002.3,1016.5
2023-11-13T01:07:00+09:00,0.2,�É�,0.9,�k��,7.4,96.3,0,0,0,0.5,0,0,1002.3,1016.5
2023-11-13T01:08:00+09:00,0.1,�É�,0.8,��,7.3,96.5,0,0,0,0.5,0,0,1002.3,1016.5
2023-11-13T01:09:00+09:00,0.1,�É�,0.8,��,7.3,96.4,0,0,0,0.5,0,0,1002.3,1016.5
2023-11-13T01:10:00+09:00,0.1,�É�,0.8,��,7.3,96.5,0,0,0,0.5,0,0,1002.4,1016.6
2023-11-13T01:11:00+09:00,0.2,�É�,1,��,7.4,96.6,0,0,0,0.5,0,0,1002.4,1016.6
2023-11-13T01:12:00+09:00,0.3,�k�k��,1,��,7.4,96.7,0,0,0,0.5,0,0,1002.4,1016.6
2023-11-13T01:13:00+09:00,0.3,�k�k��,1.1,�k��,7.4,96.8,0,0,0,0.5,0,0,1002.4,1016.6
2023-11-13T01:14:00+09:00,0.4,�k��,1.2,���k��,7.5,96.8,0,0,0,0.5,0,0,1002.4,1016.6
2023-11-13T01:15:00+09:00,0.5,�k��,1.2,���k��,7.4,96.8,0,0,0,0.5,0,0,1002.4,1016.6
2023-11-13T01:16:00+09:00,0.6,���k��,1.3,��,7.6,96.8,0,0,0,0.5,0,0,1002.4,1016.6
2023-11-13T01:17:00+09:00,0.7,���k��,1.3,��,7.5,96.9,0,0,0,0.5,0,0,1002.3,1016.5
2023-11-13T01:18:00+09:00,0.7,���k��,1.3,��,7.5,96.8,0,0,0,0.5,0,0,1002.3,1016.5
2023-11-13T01:19:00+09:00,0.7,���k��,1.3,��,7.4,96.8,0,0,0,0.5,0,0,1002.3,1016.5
2023-11-13T01:20:00+09:00,0.7,���k��,1.3,��,7.4,96.8,0,0,0,0.5,0,0,1002.3,1016.5
2023-11-13T01:21:00+09:00,0.7,���k��,1.3,��,7.3,96.7,0,0,0,0.5,0,0,1002.3,1016.5
2023-11-13T01:22:00+09:00,0.7,���k��,1.3,��,7.3,96.7,0,0,0,0.5,0,0,1002.4,1016.6
2023-11-13T01:23:00+09:00,0.7,���k��,1.4,�k��,7.3,96.6,0.5,0.5,0.5,1,0,0,1002.4,1016.6
2023-11-13T01:24:00+09:00,0.7,���k��,1.4,�k��,7.4,96.8,0.5,0.5,0.5,1,0,0,1002.3,1016.5
2023-11-13T01:25:00+09:00,0.6,���k��,1.4,�k��,7.6,97.2,0.5,0.5,0.5,1,0,0,1002.2,1016.4
2023-11-13T01:26:00+09:00,0.6,���k��,1.4,�k��,7.3,96.8,0.5,0.5,0.5,1,0,0,1002.3,1016.5
2023-11-13T01:27:00+09:00,0.6,�k��,1.4,�k��,7.5,97,0.5,0.5,0.5,1,0,0,1002.3,1016.5
2023-11-13T01:28:00+09:00,0.6,�k��,1.8,�k,7.5,97.1,0.5,0.5,0.5,1,0,0,1002.3,1016.5
2023-11-13T01:29:00+09:00,0.7,�k��,1.8,�k,7.6,97.2,0.5,0.5,0.5,1,0,0,1002.2,1016.4
2023-11-13T01:30:00+09:00,0.8,�k��,2,�k�k��,7.4,96.9,0.5,0.5,0.5,1,0,0,1002.2,1016.4
2023-11-13T01:31:00+09:00,0.9,�k��,3,�k��,7.5,96.8,0.5,0.5,0.5,1,0,0,1002.3,1016.5
2023-11-13T01:32:00+09:00,1,�k�k��,3,�k��,7.6,97,0.5,0.5,0.5,1,0,0,1002.3,1016.5
2023-11-13T01:33:00+09:00,1,�k�k��,3.6,�k�k��,7.6,97.2,0.5,1,1,1.5,0,0,1002.4,1016.6
2023-11-13T01:34:00+09:00,,,,,,,,,,,,,,
2023-11-13T01:35:00+09:00,1.3,�k�k��,3.9,�k��,7.5,96.8,0.5,1,1,1.5,0,0,1002.3,1016.5
2023-11-13T01:36:00+09:00,1.4,�k�k��,3.9,�k��,7.6,96.7,0.5,1,1,1.5,0,0,1002.3,1016.5
2023-11-13T01:37:00+09:00,1.5,�k�k��,3.9,�k��,7.6,96.7,0.5,1,1,1.5,0,0,1002.3,1016.5
2023-11-13T01:38:00+09:00,1.7,�k�k��,4.3,���k��,7.5,96.5,0.5,1,1,1.5,0,0,1002.2,1016.4
2023-11-13T01:39:00+09:00,1.7,�k�k��,4.3,���k��,7.5,96.4,0.5,1,1,1.5,0,0,1002.3,1016.5
2023-11-13T01:40:00+09:00,1.8,�k�k��,4.3,���k��,7.5,96.4,0.5,1,1,1.5,0,0,1002.2,1016.4
2023-11-13T01:41:00+09:00,1.8,�k�k��,4.3,���k��,7.6,96.2,0.5,1,1,1.5,0,0,1002.2,1016.4
2023-11-13T01:42:00+09:00,1.9,�k�k��,4.9,���k��,7.5,96,0.5,1,1,1.5,0,0,1002.2,1016.4
2023-11-13T01:43:00+09:00,1.8,�k�k��,4.9,���k��,7.7,95.8,0,1,1,1.5,0,0,1002.3,1016.5
2023-11-13T01:44:00+09:00,1.9,�k�k��,4.9,���k��,7.6,95.6,0,1,1,1.5,0,0,1002.4,1016.6
2023-11-13T01:45:00+09:00,1.9,�k�k��,4.9,���k��,7.7,95.5,0,1,1,1.5,0,0,1002.4,1016.6
2023-11-13T01:46:00+09:00,1.9,�k�k��,4.9,���k��,7.6,95.3,0,1,1,1.5,0,0,1002.4,1016.6
2023-11-13T01:47:00+09:00,1.9,�k�k��,4.9,���k��,7.4,94.7,0,1,1,1.5,0,0,1002.4,1016.6
2023-11-13T01:48:00+09:00,1.7,�k�k��,4.9,���k��,7.6,94.6,0,1,1,1.5,0,0,1002.4,1016.6
2023-11-13T01:49:00+09:00,1.8,�k�k��,4.9,���k��,7.5,94.7,0.5,1.5,1.5,2,0,0,1002.4,1016.6
2023-11-13T01:50:00+09:00,1.8,�k�k��,4.9,���k��,7.5,94.5,0.5,1.5,1.5,2,0,0,1002.4,1016.6
2023-11-13T01:51:00+09:00,2,�k�k��,4.9,���k��,7.4,93.9,0.5,1.5,1.5,2,0,0,1002.4,1016.6
2023-11-13T01:52:00+09:00,1.9,�k�k��,4.9,�k�k��,7.4,93.8,0.5,1.5,1.5,2,0,0,1002.5,1016.7
2023-11-13T01:53:00+09:00,2.1,�k�k��,5.1,�k,7.4,93.7,0.5,1.5,1.5,2,0,0,1002.4,1016.6
2023-11-13T01:54:00+09:00,2.3,�k,8.3,�k�k��,7.4,93.1,0.5,1.5,1.5,2,0,0,1002.3,1016.5
2023-11-13T01:55:00+09:00,2.4,�k,9.2,�k�k��,7.3,92.5,0.5,1.5,1.5,2,0,0,1002.4,1016.6
2023-11-13T01:56:00+09:00,2.7,�k,9.2,�k�k��,7.4,91.5,0.5,1.5,1.5,2,0,0,1002.4,1016.6
2023-11-13T01:57:00+09:00,3.1,�k,9.2,�k�k��,7.3,90.5,0.5,1.5,1.5,2,0,0,1002.4,1016.6
2023-11-13T01:58:00+09:00,3.4,�k�k��,9.2,�k�k��,7.3,89.4,0.5,1.5,1.5,2,0,0,1002.4,1016.6
2023-11-13T01:59:00+09:00,3.3,�k�k��,9.2,�k�k��,7.3,88.4,0.5,2,2,2.5,0,0,1002.4,1016.6
2023-11-13T02:00:00+09:00,3.4,�k�k��,9.2,�k�k��,7.2,87.3,0.5,2,2,2.5,0,0,1002.5,1016.7
2023-11-13T02:01:00+09:00,3.5,�k�k��,9.2,�k�k��,7.1,86.2,0.5,2,2,2.5,0,0,1002.4,1016.6
2023-11-13T02:02:00+09:00,3.8,�k�k��,9.2,�k�k��,7,85.4,0.5,2,2,2.5,0,0,1002.6,1016.9
2023-11-13T02:03:00+09:00,3.7,�k�k��,9.2,�k�k��,7.1,84.9,0.5,2,2,2.5,0,0,1002.6,1016.8
2023-11-13T02:04:00+09:00,3.6,�k�k��,9.2,�k�k��,6.9,84.6,0.5,2,2,2.5,0,0,1002.6,1016.9
2023-11-13T02:05:00+09:00,3.8,�k�k��,12.9,�k,6.8,84.2,0.5,2,2,2.5,0,0,1002.6,1016.9
2023-11-13T02:06:00+09:00,3.9,�k�k��,12.9,�k,6.7,83.9,1,2.5,2.5,3,0,0,1002.6,1016.9
2023-11-13T02:07:00+09:00,3.8,�k�k��,12.9,�k,6.5,83.7,1,2.5,2.5,3,0,0,1002.5,1016.8
2023-11-13T02:08:00+09:00,3.8,�k�k��,12.9,�k,6.4,83.5,1.5,3,3,3.5,0,0,1002.5,1016.8
2023-11-13T02:09:00+09:00,3.9,�k�k��,12.9,�k,6.4,83.5,1,3,3,3.5,0,0,1002.5,1016.8
2023-11-13T02:10:00+09:00,3.9,�k�k��,12.9,�k,6.4,84.3,1.5,3.5,3.5,4,0,0,1002.5,1016.8
2023-11-13T02:11:00+09:00,3.8,�k�k��,12.9,�k,6.3,84.4,2,4,4,4.5,0,0,1002.6,1016.9
2023-11-13T02:12:00+09:00,3.6,�k�k��,12.9,�k,6.2,84.7,2,4,4,4.5,0,0,1002.7,1017
2023-11-13T02:13:00+09:00,3.8,�k�k��,12.9,�k,6.1,84.9,2,4,4,4.5,0,0,1002.7,1017
2023-11-13T02:14:00+09:00,3.7,�k,12.9,�k,6,85.3,2.5,4.5,4.5,5,0,0,1002.8,1017.1
2023-11-13T02:15:00+09:00,3.4,�k�k��,9.1,�k��,6.1,85.9,2.5,4.5,4.5,5,0,0,1002.7,1017
2023-11-13T02:16:00+09:00,3.2,�k�k��,8,�k��,6.1,86.4,2.5,5,5,5.5,0,0,1002.7,1017
2023-11-13T02:17:00+09:00,3.1,�k�k��,8,�k��,6.1,86.5,2.5,5,5,5.5,0,0,1002.7,1017
2023-11-13T02:18:00+09:00,3.3,�k�k��,8,�k��,6,86.8,2,5,5,5.5,0,0,1002.8,1017.1
2023-11-13T02:19:00+09:00,3.3,�k�k��,6.1,�k��,6.1,86.9,2.5,5.5,5.5,6,0,0,1002.8,1017.1
2023-11-13T02:20:00+09:00,3.4,�k��,7.4,��,6.1,87.1,2,5.5,5.5,6,0,0,1002.8,1017.1
2023-11-13T02:21:00+09:00,3.4,�k��,7.4,��,6.1,86.9,2,6,6,6.5,0,0,1002.8,1017.1
2023-11-13T02:22:00+09:00,3.4,�k��,7.4,��,6,86.7,2,6,6,6.5,0,0,1002.8,1017.1
2023-11-13T02:23:00+09:00,3.1,�k��,7.4,��,6.1,86.7,2.5,6,6.5,7,0,0,1002.8,1017.1
2023-11-13T02:24:00+09:00,3.2,�k��,7.4,��,6,86.7,2,6,6.5,7,0,0,1002.7,1017
2023-11-13T02:25:00+09:00,3.2,�k��,7.4,��,5.9,86.9,2,6,6.5,7,0,0,1002.7,1017
2023-11-13T02:26:00+09:00,3.1,�k��,7.4,��,5.9,86.8,2,6.5,7,7.5,0,0,1002.6,1016.9
2023-11-13T02:27:00+09:00,2.9,�k��,7.4,��,5.7,86.6,2,6.5,7,7.5,0,0,1002.6,1016.9
2023-11-13T02:28:00+09:00,2.6,�k��,7.4,��,5.8,86.9,2.5,7,7.5,8,0,0,1002.6,1016.9
2023-11-13T02:29:00+09:00,2.5,���k��,7.4,��,5.6,87.2,2,7,7.5,8,0,0,1002.7,1017
2023-11-13T02:30:00+09:00,2.4,���k��,5.5,��,5.5,87.2,2,7,7.5,8,0,0,1002.7,1017
2023-11-13T02:31:00+09:00,2.4,���k��,5.5,��,5.5,87.5,1.5,7,7.5,8,0,0,1002.7,1017
2023-11-13T02:32:00+09:00,2.6,���k��,7.5,��,5.5,88.1,1.5,7,7.5,8,0,0,1002.6,1016.9
2023-11-13T02:33:00+09:00,2.9,���k��,7.5,��,5.5,87.9,1.5,7,8,8.5,0,0,1002.6,1016.9
2023-11-13T02:34:00+09:00,2.7,��,7.5,��,5.6,88.3,1.5,7,8,8.5,0,0,1002.7,1017
2023-11-13T02:35:00+09:00,2.6,���k��,7.5,��,5.7,88.6,1.5,7,8,8.5,0,0,1002.7,1017
2023-11-13T02:36:00+09:00,2.7,���k��,7.5,��,5.6,88.4,1,7,8,8.5,0,0,1002.7,1017
2023-11-13T02:37:00+09:00,2.8,���k��,7.5,��,5.5,88.2,1.5,7.5,8.5,9,0,0,1002.7,1017
2023-11-13T02:38:00+09:00,3,���k��,7.5,��,5.5,88.3,1,7.5,8.5,9,0,0,1002.6,1016.9
2023-11-13T02:39:00+09:00,3.2,���k��,7.5,��,5.4,88.2,1,7.5,8.5,9,0,0,1002.6,1016.9
2023-11-13T02:40:00+09:00,3.2,���k��,7.5,��,5.4,88.4,1.5,8,9,9.5,0,0,1002.7,1017
2023-11-13T02:41:00+09:00,3.2,���k��,7.5,��,5.3,88.8,1.5,8,9,9.5,0,0,1002.7,1017
2023-11-13T02:42:00+09:00,3.1,���k��,7.4,���쐼,5.3,88.8,2,8.5,9.5,10,0,0,1002.7,1017
2023-11-13T02:43:00+09:00,3,���k��,5.8,���쐼,5.2,89,1.5,8.5,9.5,10,0,0,1002.7,1017
2023-11-13T02:44:00+09:00,3.3,���k��,5.5,���k��,5.3,89.5,1.5,8.5,9.5,10,0,0,1002.7,1017
2023-11-13T02:45:00+09:00,3.3,���k��,5.5,���k��,5.2,89.5,1.5,8.5,9.5,10,0,0,1002.6,1016.9
2023-11-13T02:46:00+09:00,3.3,���k��,5.5,���k��,5.2,89.5,2,9,10,10.5,0,0,1002.6,1016.9
2023-11-13T02:47:00+09:00,3.4,���k��,5.5,���k��,5.4,89.7,1.5,9,10,10.5,0,0,1002.7,1017
2023-11-13T02:48:00+09:00,3.4,���k��,5.7,�k��,5.3,89.8,1.5,9,10,10.5,0,0,1002.6,1016.9
2023-11-13T02:49:00+09:00,3.4,���k��,5.7,�k��,5.3,89.8,1.5,8.5,10,10.5,0,0,1002.6,1016.9
2023-11-13T02:50:00+09:00,3.4,���k��,5.7,�k��,5.2,89.4,1.5,9,10.5,11,0,0,1002.5,1016.8
2023-11-13T02:51:00+09:00,3.2,���k��,5.7,�k��,5.1,89.2,1.5,9,10.5,11,0,0,1002.5,1016.8
2023-11-13T02:52:00+09:00,3.3,���k��,5.7,�k��,5.1,89.2,1,9,10.5,11,0,0,1002.6,1017
2023-11-13T02:53:00+09:00,3.2,���k��,5.7,�k��,5.1,89.1,1.5,9.5,11,11.5,0,0,1002.6,1017
2023-11-13T02:54:00+09:00,3.2,���k��,5.7,�k��,5.2,89.4,1.5,9.5,11,11.5,0,0,1002.5,1016.8
2023-11-13T02:55:00+09:00,3.5,���k��,8.5,���쐼,5.1,89.3,1.5,9.5,11,11.5,0,0,1002.5,1016.8
2023-11-13T02:56:00+09:00,3.5,���k��,8.5,���쐼,5.2,89.4,1,9.5,11,11.5,0,0,1002.6,1016.9
2023-11-13T02:57:00+09:00,3.6,���k��,8.5,���쐼,5.2,89.6,1,9.5,11,11.5,0,0,1002.6,1016.9
2023-11-13T02:58:00+09:00,3.6,���k��,8.5,���쐼,5.1,88.8,1.5,10,11.5,12,0,0,1002.7,1017.1
2023-11-13T02:59:00+09:00,3.7,���k��,8.5,���쐼,5.1,88.5,1.5,9.5,11.5,12,0,0,1002.7,1017.1
2023-11-13T03:00:00+09:00,3.8,���k��,8.5,���쐼,5.1,88.5,1,9.5,11.5,12,0,0,1002.7,1017.1
2023-11-13T03:01:00+09:00,3.9,���k��,8.5,���쐼,5.1,88.3,1,9.5,11.5,12,0,0,1002.6,1017
2023-11-13T03:02:00+09:00,3.9,���k��,8.5,���쐼,5.1,88.3,1.5,10,12,12.5,0,0,1002.7,1017.1
2023-11-13T03:03:00+09:00,3.9,���k��,8.5,���쐼,5,88.3,1,10,12,12.5,0,0,1002.7,1017.1
2023-11-13T03:04:00+09:00,4,���k��,8.5,���쐼,5,88.4,1,10,12,12.5,0,0,1002.6,1017
2023-11-13T03:05:00+09:00,3.7,���k��,6.9,���k��,5,88.2,1,10,12,12.5,0,0,1002.7,1017.1
2023-11-13T03:06:00+09:00,3.7,���k��,6.9,���k��,4.9,88.4,1,9.5,12,12.5,0,0,1002.7,1017.1
2023-11-13T03:07:00+09:00,3.7,���k��,6.9,���k��,5,88.6,1.5,10,12.5,13,0,0,1002.6,1017
2023-11-13T03:08:00+09:00,3.5,���k��,6.9,���k��,4.9,88.8,1,9.5,12.5,13,0,0,1002.7,1017.1
2023-11-13T03:09:00+09:00,3.1,���k��,6.9,���k��,5,89.3,1,9.5,12.5,13,0,0,1002.7,1017.1
2023-11-13T03:10:00+09:00,3,�k��,6.9,���k��,5.1,89.5,1,9,12.5,13,0,0,1002.7,1017.1
2023-11-13T03:11:00+09:00,3,�k��,6.9,���k��,4.9,89.5,1.5,9,13,13.5,0,0,1002.7,1017.1
2023-11-13T03:12:00+09:00,2.8,�k��,6.9,���k��,5,89.5,1,9,13,13.5,0,0,1002.6,1017
2023-11-13T03:13:00+09:00,2.8,�k��,6.9,���k��,4.9,89.6,1,9,13,13.5,0,0,1002.5,1016.9
2023-11-13T03:14:00+09:00,2.9,�k��,6.3,��,4.8,89.2,1.5,9,13.5,14,0,0,1002.6,1017
2023-11-13T03:15:00+09:00,3,�k��,6.3,��,4.8,88.9,1.5,9,13.5,14,0,0,1002.5,1016.9
2023-11-13T03:16:00+09:00,3,�k��,6.3,��,4.7,88.8,1.5,8.5,13.5,14,0,0,1002.5,1016.9
2023-11-13T03:17:00+09:00,2.9,���k��,6.3,��,4.6,88.7,1.5,9,14,14.5,0,0,1002.5,1016.9
2023-11-13T03:18:00+09:00,3.2,���k��,6.7,���k��,4.6,89,1.5,9,14,14.5,0,0,1002.4,1016.8
2023-11-13T03:19:00+09:00,3.6,���k��,6.7,���k��,4.7,89.4,1.5,8.5,14,14.5,0,0,1002.5,1016.9
2023-11-13T03:20:00+09:00,3.7,���k��,6.7,���k��,4.6,89.3,2,9,14.5,15,0,0,1002.5,1016.9
2023-11-13T03:21:00+09:00,3.8,��,6.7,���k��,4.6,89.1,1.5,8.5,14.5,15,0,0,1002.5,1016.9
2023-11-13T03:22:00+09:00,3.9,��,6.7,���k��,4.6,89.1,1.5,8.5,14.5,15,0,0,1002.5,1016.9
2023-11-13T03:23:00+09:00,4,��,6.7,���k��,4.5,89.2,2,8.5,15,15.5,0,0,1002.5,1016.9
2023-11-13T03:24:00+09:00,4.1,��,7,��,4.6,89.3,1.5,8.5,15,15.5,0,0,1002.4,1016.8
2023-11-13T03:25:00+09:00,4,��,7,��,4.6,89.6,1.5,8.5,15,15.5,0,0,1002.5,1016.9
2023-11-13T03:26:00+09:00,4,��,7,��,4.6,90,1.5,8,15,15.5,0,0,1002.5,1016.9
2023-11-13T03:27:00+09:00,3.9,��,7,��,4.7,90.3,1,8,15,15.5,0,0,1002.5,1016.9
2023-11-13T03:28:00+09:00,3.8,��,7,��,4.7,90.5,1.5,8,15.5,16,0,0,1002.3,1016.7
2023-11-13T03:29:00+09:00,3.6,��,7,��,4.8,90.5,1.5,8,15.5,16,0,0,1002.4,1016.8
2023-11-13T03:30:00+09:00,3.5,��,7,��,4.9,90.9,1,8,15.5,16,0,0,1002.3,1016.7
2023-11-13T03:31:00+09:00,3.3,���k��,7,��,4.9,91,1,8,15.5,16,0,0,1002.4,1016.8
2023-11-13T03:32:00+09:00,3.2,���k��,7,��,4.9,91,1,8,15.5,16,0,0,1002.4,1016.8
2023-11-13T03:33:00+09:00,3,���k��,7,��,4.9,90.9,0.5,7.5,15.5,16,0,0,1002.4,1016.8
2023-11-13T03:34:00+09:00,2.5,�k��,5.6,��,5,91.1,1,8,16,16.5,0,0,1002.4,1016.8
2023-11-13T03:35:00+09:00,2.3,�k��,5.6,��,5.2,91.7,1,8,16,16.5,0,0,1002.4,1016.7
2023-11-13T03:36:00+09:00,2.1,�k��,5.6,��,5.2,91.5,1,8,16,16.5,0,0,1002.4,1016.7
2023-11-13T03:37:00+09:00,1.9,�k��,5.6,��,5.2,91.3,1,7.5,16,16.5,0,0,1002.5,1016.8
2023-11-13T03:38:00+09:00,1.6,�k��,4.5,�k��,5.1,90.9,0.5,7.5,16,16.5,0,0,1002.5,1016.8
2023-11-13T03:39:00+09:00,1.4,�k��,4.5,�k��,5.1,90.9,0.5,7.5,16,16.5,0,0,1002.5,1016.8
2023-11-13T03:40:00+09:00,1.3,�k�k��,4.5,�k��,5.2,91.1,1,7.5,16.5,17,0,0,1002.5,1016.8
2023-11-13T03:41:00+09:00,1.2,�k�k��,3.8,�k�k��,5.4,91.7,1,7.5,16.5,17,0,0,1002.5,1016.8
2023-11-13T03:42:00+09:00,1.1,�k,3.8,�k�k��,5.4,91.8,1,7,16.5,17,0,0,1002.5,1016.8
2023-11-13T03:43:00+09:00,0.9,�k,2.3,�k�k��,5.3,91.3,1,7,16.5,17,0,0,1002.5,1016.8
2023-11-13T03:44:00+09:00,0.9,�k,2.3,�k�k��,5.3,91.5,0.5,7,16.5,17,0,0,1002.6,1016.9
2023-11-13T03:45:00+09:00,0.9,�k,2.4,�k�k��,5.2,91.3,0.5,7,16.5,17,0,0,1002.6,1016.9
2023-11-13T03:46:00+09:00,0.9,�k,2.4,�k�k��,5.2,91.4,1,7,17,17.5,0,0,1002.5,1016.8
2023-11-13T03:47:00+09:00,0.9,�k�k��,2.4,�k�k��,5.1,91.5,1,7,17,17.5,0,0,1002.6,1017
2023-11-13T03:48:00+09:00,0.8,�k�k��,2.4,�k�k��,5.1,91.5,1,7,17,17.5,0,0,1002.5,1016.8
2023-11-13T03:49:00+09:00,0.8,�k,2.4,�k�k��,5.2,91.9,1,7,17,17.5,0,0,1002.5,1016.8
2023-11-13T03:50:00+09:00,0.7,�k,2.4,�k�k��,5.1,92.2,0.5,6.5,17,17.5,0,0,1002.5,1016.8
2023-11-13T03:51:00+09:00,0.6,�k,2.4,�k�k��,5,91.8,0.5,6.5,17,17.5,0,0,1002.5,1016.9
2023-11-13T03:52:00+09:00,0.6,�k,2.7,�k�k��,5,91.8,1,7,17.5,18,0,0,1002.6,1017
2023-11-13T03:53:00+09:00,0.8,�k,2.7,�k�k��,5.2,92.6,1,6.5,17.5,18,0,0,1002.5,1016.8
2023-11-13T03:54:00+09:00,0.9,�k,2.7,�k�k��,5.2,93.1,1,6.5,17.5,18,0,0,1002.6,1016.9
2023-11-13T03:55:00+09:00,1,�k,3.1,�k�k��,5.2,92.9,1,6.5,17.5,18,0,0,1002.6,1016.9
2023-11-13T03:56:00+09:00,1.1,�k,3.1,�k�k��,5.4,93.5,0.5,6.5,17.5,18,0,0,1002.6,1016.9
2023-11-13T03:57:00+09:00,0.9,�k,3.1,�k�k��,5.1,93.1,1,7,18,18.5,0,0,1002.5,1016.8
2023-11-13T03:58:00+09:00,0.9,�k,3.1,�k�k��,5.2,93,1,6.5,18,18.5,0,0,1002.5,1016.8
2023-11-13T03:59:00+09:00,1,�k,3.1,�k�k��,5.2,93.5,1,6.5,18,18.5,0,0,1002.6,1016.9
2023-11-13T04:00:00+09:00,1.1,�k�k��,3.1,�k�k��,5.2,93.2,1,6.5,18,18.5,0,0,1002.5,1016.8
2023-11-13T04:01:00+09:00,1.1,�k�k��,3.1,�k�k��,5.1,93.5,1,6.5,18,18.5,0,0,1002.5,1016.8
2023-11-13T04:02:00+09:00,1,�k�k��,3.1,�k�k��,5.1,93.7,0.5,6,18,18.5,0,0,1002.5,1016.8
2023-11-13T04:03:00+09:00,1,�k�k��,3.1,�k�k��,5.1,93.1,1,6.5,18.5,19,0,0,1002.5,1016.8
2023-11-13T04:04:00+09:00,1,�k�k��,3.1,�k�k��,5.1,93.8,1,6.5,18.5,19,0,0,1002.4,1016.7
2023-11-13T04:05:00+09:00,0.8,�k�k��,2.1,�k�k��,5.1,93.8,1,6.5,18.5,19,0,0,1002.4,1016.7
2023-11-13T04:06:00+09:00,0.7,�k�k��,2.1,�k�k��,5.1,93.8,1,6.5,18.5,19,0,0,1002.5,1016.8
2023-11-13T04:07:00+09:00,0.7,�k��,2.1,�k�k��,5.1,93.8,0.5,6,18.5,19,0,0,1002.5,1016.8
2023-11-13T04:08:00+09:00,0.8,�k��,2.1,�k�k��,4.9,93.4,0.5,6,18.5,19,0,0,1002.6,1017
2023-11-13T04:09:00+09:00,0.7,�k��,2.1,�k�k��,4.9,93.4,1,6.5,19,19.5,0,0,1002.5,1016.9
2023-11-13T04:10:00+09:00,0.7,�k��,2.1,�k�k��,5,93.9,1,6.5,19,19.5,0,0,1002.6,1017
2023-11-13T04:11:00+09:00,0.7,�k��,2.1,�k�k��,5.1,94.4,1,6,19,19.5,0,0,1002.5,1016.8
2023-11-13T04:12:00+09:00,0.7,���k��,2.1,�k�k��,5.1,94.4,1,6,19,19.5,0,0,1002.6,1017
2023-11-13T04:13:00+09:00,0.7,���k��,1.6,���k��,5,94.1,0.5,6,19,19.5,0,0,1002.6,1017
2023-11-13T04:14:00+09:00,0.6,���k��,1.6,���k��,5.1,94.4,0.5,5.5,19,19.5,0,0,1002.6,1017
2023-11-13T04:15:00+09:00,0.6,���k��,1.6,���k��,5.2,94.9,0.5,5.5,19,19.5,0,0,1002.7,1017
2023-11-13T04:16:00+09:00,0.7,���k��,1.6,���k��,5.1,94.7,1,6,19.5,20,0,0,1002.6,1017
2023-11-13T04:17:00+09:00,0.7,���k��,1.6,���k��,5,94.6,1,5.5,19.5,20,0,0,1002.6,1017
2023-11-13T04:18:00+09:00,0.7,���k��,1.6,���k��,4.8,94,1,5.5,19.5,20,0,0,1002.6,1017
2023-11-13T04:19:00+09:00,0.6,���k��,1.6,�k��,5,94.5,0.5,5.5,19.5,20,0,0,1002.7,1017.1
2023-11-13T04:20:00+09:00,0.6,���k��,1.6,�k��,5,95.1,0.5,5,19.5,20,0,0,1002.6,1017
2023-11-13T04:21:00+09:00,0.6,���k��,1.6,�k��,5.1,95,0.5,5,19.5,20,0,0,1002.7,1017.1
2023-11-13T04:22:00+09:00,0.6,���k��,1.6,�k��,5.3,95.4,0.5,5,19.5,20,0,0,1002.6,1016.9
2023-11-13T04:23:00+09:00,0.6,���k��,1.6,�k��,5.4,95.5,1,5,20,20.5,0,0,1002.7,1017
2023-11-13T04:24:00+09:00,0.6,���k��,1.7,�k�k��,5.4,95.7,1,5,20,20.5,0,0,1002.7,1017
2023-11-13T04:25:00+09:00,0.5,���k��,1.7,�k�k��,5.4,95.6,1,5,20,20.5,0,0,1002.8,1017.1
2023-11-13T04:26:00+09:00,0.5,���k��,1.7,�k�k��,5.4,95.6,0.5,5,20,20.5,0,0,1002.7,1017
2023-11-13T04:27:00+09:00,0.4,���k��,1.7,�k�k��,5.5,95.6,0.5,5,20,20.5,0,0,1002.8,1017.1
2023-11-13T04:28:00+09:00,0.4,�k��,1.7,�k�k��,5.6,95.9,0.5,4.5,20,20.5,0,0,1002.7,1017
2023-11-13T04:29:00+09:00,0.4,�k��,1.7,�k�k��,5.3,95.5,0.5,4.5,20,20.5,0,0,1002.7,1017
2023-11-13T04:30:00+09:00,0.5,�k��,1.8,�k��,5.5,95.5,1,5,20.5,21,0,0,1002.8,1017.1
2023-11-13T04:31:00+09:00,0.4,�k�k��,1.8,�k��,5.6,95.8,1,5,20.5,21,0,0,1002.8,1017.1
2023-11-13T04:32:00+09:00,0.5,�k�k��,2.1,��,5.4,95.8,1,5,20.5,21,0,0,1002.8,1017.1
2023-11-13T04:33:00+09:00,0.5,�k,2.1,��,5.5,95.4,0.5,5,20.5,21,0,0,1002.8,1017.1
2023-11-13T04:34:00+09:00,0.5,�k�k��,2.1,��,5.6,95.9,0.5,4.5,20.5,21,0,0,1002.8,1017.1
2023-11-13T04:35:00+09:00,0.7,�k�k��,3.2,�k,5.8,96,0.5,4.5,20.5,21,0,0,1002.8,1017.1
2023-11-13T04:36:00+09:00,1,�k�k��,6.4,�k��,6,96.1,1,5,21,21.5,0,0,1002.9,1017.2
2023-11-13T04:37:00+09:00,1.6,�k�k��,7.2,�k��,6.3,96.3,1,5,21,21.5,0,0,1002.8,1017.1
2023-11-13T04:38:00+09:00,2,�k�k��,7.2,�k��,6.5,96.5,1,5,21,21.5,0,0,1002.7,1017
2023-11-13T04:39:00+09:00,2.2,�k��,7.2,�k��,6.6,96.6,1,5,21,21.5,0,0,1002.8,1017.1
2023-11-13T04:40:00+09:00,2.4,�k��,7.2,�k��,6.7,96.4,0.5,4.5,21,21.5,0,0,1002.9,1017.2
2023-11-13T04:41:00+09:00,2.6,�k��,7.2,�k��,6.6,96,0.5,4.5,21,21.5,0,0,1002.9,1017.2
2023-11-13T04:42:00+09:00,2.7,�k��,7.2,�k��,6.5,95.2,1,5,21.5,22,0,0,1002.9,1017.2
2023-11-13T04:43:00+09:00,3,�k��,7.2,�k��,6.6,94.6,1,5,21.5,22,0,0,1002.9,1017.2
2023-11-13T04:44:00+09:00,3.1,�k��,7.2,�k��,6.6,93.8,1,5,21.5,22,0,0,1002.9,1017.2
2023-11-13T04:45:00+09:00,3.4,�k��,8.1,�k�k��,6.5,92.8,1,5,21.5,22,0,0,1002.9,1017.2
2023-11-13T04:46:00+09:00,3.5,�k��,8.2,�k��,6.6,92.3,0.5,4.5,21.5,22,0,0,1002.7,1017